START_TIME,STEP,MOV.,M29,t_acc.,H22,t_acc.,H26,t_acc.,H30,t_acc.
1979-07-26 15:00:31.220 ,1,0,0.,24.0,0.,24.0,0.,24.0,0.,24.0
1979-07-26 15:00:55.220 ,2,1,0.,24.0,0.,24.0,0.,24.0,0.,24.0
1979-07-26 15:01:19.220 ,2,0,1.,24.0,0.,24.0,0.,24.0,0.,24.0
1979-07-26 15:01:43.220 ,3,1,0.,24.0,0.,24.0,0.,24.0,0.,24.0
1979-07-26 15:02:07.220 ,3,0,0.,24.0,0.,24.0,0.,24.0,0.,24.0
1979-07-26 15:02:31.220 ,4,1,1.,24.0,0.,24.0,0.,24.0,0.,24.0
1979-07-26 15:02:55.220 ,4,0,0.,24.0,0.,24.0,0.,24.0,0.,24.0
1979-07-26 15:03:19.220 ,5,1,0.,24.0,0.,24.0,0.,24.0,0.,24.0
1979-07-26 15:03:43.220 ,5,0,0.,24.0,0.,24.0,0.,24.0,0.,24.0
1979-07-26 15:04:07.220 ,6,1,0.,24.0,0.,24.0,0.,24.0,0.,24.0
1979-07-26 15:04:31.220 ,6,0,0.,24.0,0.,24.0,0.,24.0,0.,24.0
1979-07-26 15:04:55.220 ,7,1,0.,24.0,0.,24.0,0.,24.0,0.,24.0
1979-07-26 15:05:19.220 ,7,0,0.,24.0,0.,24.0,0.,24.0,0.,24.0
1979-07-26 15:05:43.220 ,7,1,0.,24.0,0.,24.0,0.,24.0,0.,24.0
1979-07-26 15:06:07.220 ,7,0,0.,24.0,0.,24.0,0.,24.0,0.,24.0
1979-07-26 15:06:31.220 ,6,1,0.,24.0,0.,24.0,0.,24.0,0.,24.0
1979-07-26 15:06:55.220 ,6,0,0.,24.0,0.,24.0,0.,24.0,0.,24.0
1979-07-26 15:07:19.220 ,5,1,0.,24.0,0.,24.0,0.,24.0,0.,24.0
1979-07-26 15:07:43.220 ,5,0,0.,24.0,0.,24.0,0.,24.0,0.,24.0
1979-07-26 15:08:07.220 ,4,1,0.,24.0,0.,24.0,0.,24.0,0.,24.0
1979-07-26 15:08:31.220 ,4,0,0.,24.0,0.,24.0,0.,24.0,0.,24.0
1979-07-26 15:08:55.220 ,3,1,0.,24.0,0.,24.0,0.,24.0,0.,24.0
1979-07-26 15:09:19.220 ,3,0,0.,24.0,0.,24.0,0.,24.0,0.,24.0
1979-07-26 15:09:43.220 ,2,1,0.,24.0,0.,24.0,0.,24.0,0.,24.0
1979-07-26 15:10:07.220 ,2,0,0.,24.0,0.,24.0,0.,24.0,0.,24.0
1979-07-26 15:10:31.220 ,1,1,0.,24.0,0.,24.0,0.,24.0,0.,24.0
1979-07-26 15:10:55.220 ,1,0,0.,24.0,0.,24.0,0.,24.0,0.,24.0
1979-07-26 15:11:19.220 ,0,1,0.,24.0,0.,24.0,0.,24.0,0.,24.0
1979-07-26 15:11:43.220 ,0,0,0.,24.0,0.,24.0,0.,24.0,0.,24.0
1979-07-26 15:12:07.220 ,0,1,0.,24.0,0.,24.0,0.,24.0,0.,24.0
1979-07-26 15:12:31.220 ,0,0,0.,24.0,0.,24.0,0.,24.0,0.,24.0
1979-07-26 15:12:55.220 ,1,1,0.,24.0,0.,24.0,0.,24.0,0.,24.0
1979-07-26 15:13:19.220 ,1,0,0.,24.0,0.,24.0,0.,24.0,0.,24.0
1979-07-26 15:13:43.220 ,2,1,0.,24.0,0.,24.0,0.,24.0,0.,24.0
1979-07-26 15:14:07.220 ,2,0,0.,24.0,0.,24.0,0.,24.0,0.,24.0
1979-07-26 15:14:31.220 ,3,1,0.,24.0,0.,24.0,0.,24.0,0.,24.0
1979-07-26 15:14:55.220 ,3,0,0.,24.0,0.,24.0,0.,24.0,0.,24.0
1979-07-26 15:15:19.220 ,4,1,0.,24.0,0.,24.0,0.,24.0,0.,24.0
1979-07-26 15:15:43.220 ,4,0,0.,24.0,0.,24.0,0.,24.0,0.,24.0
1979-07-26 15:16:07.220 ,5,1,0.,24.0,0.,24.0,0.,24.0,0.,24.0
1979-07-26 15:16:31.220 ,5,0,0.,24.0,0.,24.0,0.,24.0,0.,24.0
1979-07-26 15:16:55.220 ,6,1,0.,24.0,0.,24.0,0.,24.0,0.,24.0
1979-07-26 15:17:19.220 ,6,0,0.,24.0,0.,24.0,0.,24.0,0.,24.0
1979-07-26 15:17:43.220 ,7,1,0.,24.0,0.,24.0,0.,24.0,0.,24.0
1979-07-26 15:18:07.220 ,7,0,0.,24.0,0.,24.0,0.,24.0,0.,24.0
1979-07-26 15:18:31.220 ,7,1,0.,24.0,0.,24.0,0.,24.0,0.,24.0
1979-07-26 15:18:55.220 ,7,0,0.,24.0,0.,24.0,0.,24.0,0.,24.0
1979-07-26 15:19:19.220 ,6,1,0.,24.0,0.,24.0,0.,24.0,0.,24.0
1979-07-26 15:19:43.220 ,6,0,0.,24.0,0.,24.0,0.,24.0,0.,24.0
1979-07-26 15:20:07.220 ,5,1,0.,24.0,0.,24.0,0.,24.0,0.,24.0
1979-07-26 15:20:31.220 ,5,0,0.,24.0,0.,24.0,0.,24.0,0.,24.0
1979-07-26 15:20:55.220 ,4,1,0.,24.0,0.,24.0,0.,24.0,0.,24.0
1979-07-26 15:21:19.220 ,4,0,0.,24.0,0.,24.0,0.,24.0,0.,24.0
1979-07-26 15:21:43.220 ,3,1,0.,24.0,0.,24.0,0.,24.0,0.,24.0
1979-07-26 15:22:07.220 ,3,0,0.,24.0,0.,24.0,0.,24.0,0.,24.0
1979-07-26 15:22:31.220 ,2,1,0.,24.0,0.,24.0,0.,24.0,0.,24.0
1979-07-26 15:22:55.220 ,2,0,0.,24.0,0.,24.0,0.,24.0,0.,24.0
1979-07-26 15:23:19.220 ,1,1,0.,24.0,0.,24.0,0.,24.0,0.,24.0
1979-07-26 15:23:43.220 ,1,0,0.,24.0,0.,24.0,0.,24.0,0.,24.0
1979-07-26 15:24:07.220 ,0,1,0.,24.0,0.,24.0,0.,24.0,0.,24.0
1979-07-26 15:24:31.220 ,0,0,,0,,0,,0,,0
1979-07-26 15:24:55.220 ,0,1,0.,24.0,0.,24.0,0.,24.0,0.,24.0
1979-07-26 15:25:19.220 ,0,0,0.,24.0,0.,24.0,0.,24.0,0.,24.0
1979-07-26 15:25:43.220 ,1,1,0.,24.0,0.,24.0,0.,24.0,0.,24.0
1979-07-26 15:26:07.220 ,1,0,0.,24.0,0.,24.0,0.,24.0,0.,24.0
1979-07-26 15:26:31.220 ,2,1,0.,24.0,0.,24.0,0.,24.0,0.,24.0
1979-07-26 15:26:55.220 ,2,0,0.,24.0,0.,24.0,0.,24.0,0.,24.0
1979-07-26 15:27:19.220 ,3,1,0.,24.0,0.,24.0,0.,24.0,0.,24.0
1979-07-26 15:27:43.220 ,3,0,0.,24.0,0.,24.0,0.,24.0,0.,24.0
1979-07-26 15:28:07.220 ,4,1,0.,24.0,0.,24.0,0.,24.0,0.,24.0
1979-07-26 15:28:31.220 ,4,0,0.,24.0,0.,24.0,0.,24.0,0.,24.0
1979-07-26 15:28:55.220 ,5,1,0.,24.0,0.,24.0,0.,24.0,0.,24.0
1979-07-26 15:29:19.220 ,5,0,0.,24.0,0.,24.0,0.,24.0,0.,24.0
1979-07-26 15:29:43.220 ,6,1,0.,24.0,0.,24.0,0.,24.0,0.,24.0
1979-07-26 15:30:07.220 ,6,0,0.,24.0,0.,24.0,0.,24.0,0.,24.0
1979-07-26 15:30:31.220 ,7,0,0.,24.0,0.,24.0,0.,24.0,0.,24.0
1979-07-26 15:30:55.220 ,7,0,0.,24.0,0.,24.0,0.,24.0,0.,24.0
1979-07-26 15:31:19.220 ,5,1,0.,24.0,0.,24.0,0.,24.0,0.,24.0
1979-07-26 15:31:43.220 ,1,1,0.,24.0,0.,24.0,0.,24.0,0.,24.0
1979-07-26 15:32:07.220 ,2,1,0.,24.0,0.,24.0,0.,24.0,0.,24.0
1979-07-26 15:32:31.220 ,6,1,0.,24.0,0.,24.0,0.,24.0,0.,24.0
1979-07-26 15:32:55.220 ,5,1,0.,24.0,0.,24.0,0.,24.0,0.,24.0
1979-07-26 15:33:19.220 ,1,1,0.,24.0,0.,24.0,0.,24.0,0.,24.0
1979-07-26 15:33:43.220 ,2,1,0.,24.0,0.,24.0,0.,24.0,0.,24.0
1979-07-26 15:34:07.220 ,6,1,0.,24.0,0.,24.0,0.,24.0,0.,24.0
1979-07-26 15:34:31.220 ,5,1,0.,24.0,0.,24.0,0.,24.0,0.,24.0
1979-07-26 15:34:55.220 ,1,1,0.,24.0,0.,24.0,0.,24.0,0.,24.0
1979-07-26 15:35:19.220 ,2,1,0.,24.0,0.,24.0,0.,24.0,0.,24.0
1979-07-26 15:35:43.220 ,6,1,0.,24.0,0.,24.0,0.,24.0,0.,24.0
1979-07-26 15:36:07.220 ,5,1,0.,24.0,0.,24.0,0.,24.0,0.,24.0
1979-07-26 15:36:31.220 ,1,1,0.,24.0,0.,24.0,0.,24.0,0.,24.0
1979-07-26 15:36:55.220 ,2,1,0.,24.0,0.,24.0,0.,24.0,0.,24.0
1979-07-26 15:37:19.220 ,6,1,0.,24.0,0.,24.0,0.,24.0,0.,24.0
1979-07-26 15:37:43.220 ,5,1,0.,24.0,0.,24.0,0.,24.0,0.,24.0
1979-07-26 15:38:07.220 ,1,1,0.,24.0,0.,24.0,0.,24.0,0.,24.0
1979-07-26 15:38:31.220 ,2,1,0.,24.0,0.,24.0,0.,24.0,0.,24.0
1979-07-26 15:38:55.220 ,6,1,0.,24.0,0.,24.0,0.,24.0,0.,24.0
1979-07-26 15:39:19.220 ,5,1,0.,24.0,0.,24.0,0.,24.0,0.,24.0
1979-07-26 15:39:43.220 ,1,1,0.,24.0,0.,24.0,0.,24.0,0.,24.0
1979-07-26 15:40:07.220 ,2,1,0.,24.0,0.,24.0,0.,24.0,0.,24.0
1979-07-26 15:40:31.220 ,6,1,0.,24.0,0.,24.0,0.,24.0,0.,24.0
1979-07-26 15:40:55.220 ,5,1,0.,24.0,0.,24.0,0.,24.0,0.,24.0
1979-07-26 15:41:19.220 ,1,1,0.,24.0,0.,24.0,0.,24.0,0.,24.0
1979-07-26 15:41:43.220 ,0,0,0.,24.0,0.,24.0,0.,24.0,0.,24.0
1979-07-26 15:42:07.220 ,0,0,1.,24.0,0.,24.0,0.,24.0,0.,24.0
1979-07-26 15:42:31.220 ,5,1,0.,24.0,0.,24.0,0.,24.0,0.,24.0
1979-07-26 15:42:55.220 ,5,0,0.,24.0,0.,24.0,0.,24.0,0.,24.0
1979-07-26 15:43:19.220 ,4,1,0.,24.0,0.,24.0,0.,24.0,0.,24.0
1979-07-26 15:43:43.220 ,4,0,0.,24.0,0.,24.0,0.,24.0,0.,24.0
1979-07-26 15:44:07.220 ,3,1,0.,24.0,0.,24.0,0.,24.0,0.,24.0
1979-07-26 15:44:31.220 ,3,0,0.,24.0,0.,24.0,0.,24.0,0.,24.0
1979-07-26 15:44:55.220 ,2,1,0.,24.0,0.,24.0,0.,24.0,0.,24.0
1979-07-26 15:45:19.220 ,2,0,0.,24.0,0.,24.0,0.,24.0,0.,24.0
1979-07-26 15:45:43.220 ,1,1,0.,24.0,0.,24.0,0.,24.0,0.,24.0
1979-07-26 15:46:07.220 ,1,0,0.,24.0,0.,24.0,0.,24.0,0.,24.0
1979-07-26 15:46:31.220 ,0,1,0.,24.0,0.,24.0,0.,24.0,0.,24.0
1979-07-26 15:46:55.220 ,0,0,0.,24.0,0.,24.0,0.,24.0,0.,24.0
1979-07-26 15:47:19.220 ,0,1,0.,24.0,0.,24.0,0.,24.0,0.,24.0
1979-07-26 15:47:43.220 ,0,0,0.,24.0,0.,24.0,0.,24.0,0.,24.0
1979-07-26 15:48:07.220 ,1,1,0.,24.0,0.,24.0,0.,24.0,0.,24.0
1979-07-26 15:48:31.220 ,1,0,0.,24.0,0.,24.0,0.,24.0,0.,24.0
1979-07-26 15:48:55.220 ,2,1,0.,24.0,0.,24.0,0.,24.0,0.,24.0
1979-07-26 15:49:19.220 ,2,0,0.,24.0,0.,24.0,0.,24.0,0.,24.0
1979-07-26 15:49:43.220 ,3,1,0.,24.0,0.,24.0,0.,24.0,0.,24.0
1979-07-26 15:50:07.220 ,3,0,0.,24.0,0.,24.0,0.,24.0,0.,24.0
1979-07-26 15:50:31.220 ,4,1,0.,24.0,0.,24.0,0.,24.0,0.,24.0
1979-07-26 15:50:55.220 ,4,0,0.,24.0,0.,24.0,0.,24.0,0.,24.0
1979-07-26 15:51:19.220 ,5,1,0.,24.0,0.,24.0,0.,24.0,0.,24.0
1979-07-26 15:51:43.220 ,5,0,0.,24.0,0.,24.0,0.,24.0,0.,24.0
1979-07-26 15:52:07.220 ,6,1,0.,24.0,0.,24.0,0.,24.0,0.,24.0
1979-07-26 15:52:31.220 ,6,0,0.,24.0,0.,24.0,0.,24.0,0.,24.0
1979-07-26 15:52:55.220 ,7,1,0.,24.0,0.,24.0,0.,24.0,0.,24.0
1979-07-26 15:53:19.220 ,7,0,0.,24.0,0.,24.0,0.,24.0,0.,24.0
1979-07-26 15:53:43.220 ,7,1,1.,24.0,0.,24.0,0.,24.0,0.,24.0
1979-07-26 15:54:07.220 ,7,0,0.,24.0,0.,24.0,0.,24.0,0.,24.0
1979-07-26 15:54:31.220 ,6,1,0.,24.0,0.,24.0,0.,24.0,0.,24.0
1979-07-26 15:54:55.220 ,6,0,0.,24.0,0.,24.0,0.,24.0,0.,24.0
1979-07-26 15:55:19.220 ,5,1,0.,24.0,0.,24.0,0.,24.0,0.,24.0
1979-07-26 15:55:43.220 ,5,0,0.,24.0,0.,24.0,0.,24.0,0.,24.0
1979-07-26 15:56:07.220 ,4,1,0.,24.0,0.,24.0,0.,24.0,0.,24.0
1979-07-26 15:56:31.220 ,4,0,0.,24.0,0.,24.0,0.,24.0,0.,24.0
1979-07-26 15:56:55.220 ,3,1,0.,24.0,0.,24.0,0.,24.0,0.,24.0
1979-07-26 15:57:19.220 ,3,0,0.,24.0,0.,24.0,0.,24.0,0.,24.0
1979-07-26 15:57:43.220 ,2,1,0.,24.0,0.,24.0,0.,24.0,0.,24.0
1979-07-26 15:58:07.220 ,2,0,0.,24.0,0.,24.0,0.,24.0,0.,24.0
1979-07-26 15:58:31.220 ,1,1,0.,24.0,0.,24.0,0.,24.0,0.,24.0
1979-07-26 15:58:55.220 ,1,0,0.,24.0,0.,24.0,0.,24.0,0.,24.0
1979-07-26 15:59:19.220 ,0,1,0.,24.0,0.,24.0,0.,24.0,0.,24.0
1979-07-26 15:59:43.220 ,0,0,0.,24.0,0.,24.0,0.,24.0,0.,24.0
1979-07-26 16:00:07.220 ,0,1,0.,24.0,0.,24.0,0.,24.0,0.,24.0
1979-07-26 16:00:31.220 ,0,0,0.,24.0,0.,24.0,0.,24.0,0.,24.0
1979-07-26 16:00:55.220 ,1,1,0.,24.0,0.,24.0,0.,24.0,0.,24.0
1979-07-26 16:01:19.220 ,1,0,0.,24.0,0.,24.0,0.,24.0,0.,24.0
1979-07-26 16:01:43.220 ,2,1,0.,24.0,0.,24.0,0.,24.0,0.,24.0
1979-07-26 16:02:07.220 ,2,0,0.,24.0,0.,24.0,0.,24.0,0.,24.0
1979-07-26 16:02:31.220 ,3,1,0.,24.0,0.,24.0,0.,24.0,0.,24.0
1979-07-26 16:02:55.220 ,3,0,0.,24.0,0.,24.0,0.,24.0,0.,24.0
1979-07-26 16:03:19.220 ,4,1,0.,24.0,0.,24.0,0.,24.0,0.,24.0
1979-07-26 16:03:43.220 ,4,0,0.,24.0,0.,24.0,0.,24.0,0.,24.0
1979-07-26 16:04:07.220 ,5,1,0.,24.0,0.,24.0,0.,24.0,0.,24.0
1979-07-26 16:04:31.220 ,5,0,0.,24.0,0.,24.0,0.,24.0,0.,24.0
1979-07-26 16:04:55.220 ,6,1,1.,24.0,0.,24.0,0.,24.0,0.,24.0
1979-07-26 16:05:19.220 ,6,0,0.,24.0,0.,24.0,0.,24.0,0.,24.0
1979-07-26 16:05:43.220 ,7,1,0.,24.0,0.,24.0,0.,24.0,0.,24.0
1979-07-26 16:06:07.220 ,7,0,0.,24.0,0.,24.0,0.,24.0,0.,24.0
1979-07-26 16:06:31.220 ,7,1,0.,24.0,0.,24.0,0.,24.0,0.,24.0
1979-07-26 16:06:55.220 ,7,0,0.,24.0,0.,24.0,0.,24.0,0.,24.0
1979-07-26 16:07:19.220 ,6,1,0.,24.0,0.,24.0,0.,24.0,0.,24.0
1979-07-26 16:07:43.220 ,6,0,0.,24.0,0.,24.0,0.,24.0,0.,24.0
1979-07-26 16:08:07.220 ,5,1,0.,24.0,0.,24.0,0.,24.0,0.,24.0
1979-07-26 16:08:31.220 ,5,0,0.,24.0,0.,24.0,0.,24.0,0.,24.0
1979-07-26 16:08:55.220 ,4,1,0.,24.0,0.,24.0,0.,24.0,0.,24.0
1979-07-26 16:09:19.220 ,4,0,0.,24.0,0.,24.0,0.,24.0,0.,24.0
1979-07-26 16:09:43.220 ,3,1,0.,24.0,0.,24.0,0.,24.0,0.,24.0
1979-07-26 16:10:07.220 ,3,0,0.,24.0,0.,24.0,0.,24.0,0.,24.0
1979-07-26 16:10:31.220 ,2,1,0.,24.0,0.,24.0,0.,24.0,0.,24.0
1979-07-26 16:10:55.220 ,2,0,0.,24.0,0.,24.0,0.,24.0,0.,24.0
1979-07-26 16:11:19.220 ,1,1,0.,24.0,0.,24.0,0.,24.0,0.,24.0
1979-07-26 16:11:43.220 ,1,0,0.,24.0,0.,24.0,0.,24.0,0.,24.0
1979-07-26 16:12:07.220 ,0,1,0.,24.0,0.,24.0,0.,24.0,0.,24.0
1979-07-26 16:12:31.220 ,0,0,0.,24.0,0.,24.0,0.,24.0,0.,24.0
1979-07-26 16:12:55.220 ,0,1,0.,24.0,0.,24.0,0.,24.0,0.,24.0
1979-07-26 16:13:19.220 ,0,0,0.,24.0,0.,24.0,0.,24.0,0.,24.0
1979-07-26 16:13:43.220 ,1,1,0.,24.0,0.,24.0,0.,24.0,0.,24.0
1979-07-26 16:14:07.220 ,1,0,0.,24.0,0.,24.0,0.,24.0,0.,24.0
1979-07-26 16:14:31.220 ,2,1,0.,24.0,0.,24.0,0.,24.0,0.,24.0
1979-07-26 16:14:55.220 ,2,0,0.,24.0,0.,24.0,0.,24.0,0.,24.0
1979-07-26 16:15:19.220 ,3,1,0.,24.0,0.,24.0,0.,24.0,0.,24.0
1979-07-26 16:15:43.220 ,3,0,0.,24.0,0.,24.0,0.,24.0,0.,24.0
1979-07-26 16:16:07.220 ,4,1,0.,24.0,0.,24.0,0.,24.0,0.,24.0
1979-07-26 16:16:31.220 ,4,0,0.,24.0,0.,24.0,0.,24.0,0.,24.0
1979-07-26 16:16:55.220 ,5,1,0.,24.0,0.,24.0,0.,24.0,0.,24.0
1979-07-26 16:17:19.220 ,5,0,0.,24.0,0.,24.0,0.,24.0,0.,24.0
1979-07-26 16:17:43.220 ,6,1,0.,24.0,0.,24.0,0.,24.0,0.,24.0
1979-07-26 16:18:07.220 ,6,0,0.,24.0,0.,24.0,0.,24.0,0.,24.0
1979-07-26 16:18:31.220 ,7,0,0.,24.0,0.,24.0,0.,24.0,0.,24.0
1979-07-26 16:18:55.220 ,7,0,0.,24.0,0.,24.0,0.,24.0,0.,24.0
1979-07-26 16:19:19.220 ,5,1,0.,24.0,0.,24.0,0.,24.0,0.,24.0
1979-07-26 16:19:43.220 ,1,1,0.,24.0,0.,24.0,0.,24.0,0.,24.0
1979-07-26 16:20:07.220 ,2,1,0.,24.0,0.,24.0,0.,24.0,0.,24.0
1979-07-26 16:20:31.220 ,6,1,0.,24.0,0.,24.0,0.,24.0,0.,24.0
1979-07-26 16:20:55.220 ,5,1,0.,24.0,0.,24.0,0.,24.0,0.,24.0
1979-07-26 16:21:19.220 ,1,1,1.,24.0,0.,24.0,0.,24.0,0.,24.0
1979-07-26 16:21:43.220 ,2,1,0.,24.0,0.,24.0,0.,24.0,0.,24.0
1979-07-26 16:22:07.220 ,6,1,0.,24.0,0.,24.0,0.,24.0,0.,24.0
1979-07-26 16:22:31.220 ,5,1,0.,24.0,0.,24.0,0.,24.0,0.,24.0
1979-07-26 16:22:55.220 ,1,1,0.,24.0,0.,24.0,0.,24.0,0.,24.0
1979-07-26 16:23:19.220 ,2,1,0.,24.0,0.,24.0,0.,24.0,0.,24.0
1979-07-26 16:23:43.220 ,6,1,0.,24.0,0.,24.0,0.,24.0,0.,24.0
1979-07-26 16:24:07.220 ,5,1,0.,24.0,0.,24.0,0.,24.0,0.,24.0
1979-07-26 16:24:31.220 ,1,1,0.,24.0,0.,24.0,0.,24.0,0.,24.0
1979-07-26 16:24:55.220 ,2,1,0.,24.0,0.,24.0,0.,24.0,0.,24.0
1979-07-26 16:25:19.220 ,6,1,0.,24.0,0.,24.0,0.,24.0,0.,24.0
1979-07-26 16:25:43.220 ,5,1,0.,24.0,0.,24.0,0.,24.0,0.,24.0
1979-07-26 16:26:07.220 ,1,1,0.,24.0,0.,24.0,0.,24.0,0.,24.0
1979-07-26 16:26:31.220 ,2,1,0.,24.0,0.,24.0,0.,24.0,0.,24.0
1979-07-26 16:26:55.220 ,6,1,0.,24.0,0.,24.0,0.,24.0,0.,24.0
1979-07-26 16:27:19.220 ,5,1,0.,24.0,0.,24.0,0.,24.0,0.,24.0
1979-07-26 16:27:43.220 ,1,1,0.,24.0,0.,24.0,0.,24.0,0.,24.0
1979-07-26 16:28:07.220 ,2,1,0.,24.0,0.,24.0,0.,24.0,0.,24.0
1979-07-26 16:28:31.220 ,6,1,0.,24.0,0.,24.0,0.,24.0,0.,24.0
1979-07-26 16:28:55.220 ,5,1,0.,24.0,0.,24.0,0.,24.0,0.,24.0
1979-07-26 16:29:19.220 ,1,1,0.,24.0,0.,24.0,0.,24.0,0.,24.0
1979-07-26 16:29:43.220 ,0,0,0.,24.0,0.,24.0,0.,24.0,0.,24.0
1979-07-26 16:30:07.220 ,0,0,0.,24.0,0.,24.0,0.,24.0,0.,24.0
1979-07-26 16:30:31.220 ,5,1,0.,24.0,0.,24.0,0.,24.0,0.,24.0
1979-07-26 16:30:55.220 ,5,0,0.,24.0,0.,24.0,0.,24.0,0.,24.0
1979-07-26 16:31:19.220 ,4,1,0.,24.0,0.,24.0,0.,24.0,0.,24.0
1979-07-26 16:31:43.220 ,4,0,0.,24.0,0.,24.0,0.,24.0,0.,24.0
1979-07-26 16:32:07.220 ,3,1,0.,24.0,0.,24.0,0.,24.0,0.,24.0
1979-07-26 16:32:31.220 ,3,0,0.,24.0,0.,24.0,0.,24.0,0.,24.0
1979-07-26 16:32:55.220 ,2,1,0.,24.0,0.,24.0,0.,24.0,0.,24.0
1979-07-26 16:33:19.220 ,2,0,0.,24.0,0.,24.0,0.,24.0,0.,24.0
1979-07-26 16:33:43.220 ,1,1,0.,24.0,0.,24.0,0.,24.0,0.,24.0
1979-07-26 16:34:07.220 ,1,0,0.,24.0,0.,24.0,0.,24.0,0.,24.0
1979-07-26 16:34:31.220 ,0,1,0.,24.0,0.,24.0,0.,24.0,0.,24.0
1979-07-26 16:34:55.220 ,0,0,0.,24.0,0.,24.0,0.,24.0,0.,24.0
1979-07-26 16:35:19.220 ,0,1,0.,24.0,0.,24.0,0.,24.0,0.,24.0
1979-07-26 16:35:43.220 ,0,0,0.,24.0,0.,24.0,0.,24.0,0.,24.0
1979-07-26 16:36:07.220 ,1,1,0.,24.0,0.,24.0,0.,24.0,0.,24.0
1979-07-26 16:36:31.220 ,1,0,0.,24.0,0.,24.0,0.,24.0,0.,24.0
1979-07-26 16:36:55.220 ,2,1,0.,24.0,0.,24.0,0.,24.0,0.,24.0
1979-07-26 16:37:19.220 ,2,0,0.,24.0,0.,24.0,0.,24.0,0.,24.0
1979-07-26 16:37:43.220 ,3,1,0.,24.0,0.,24.0,0.,24.0,0.,24.0
1979-07-26 16:38:07.220 ,3,0,0.,24.0,0.,24.0,0.,24.0,0.,24.0
1979-07-26 16:38:31.220 ,4,1,0.,24.0,0.,24.0,0.,24.0,0.,24.0
1979-07-26 16:38:55.220 ,4,0,0.,24.0,0.,24.0,0.,24.0,0.,24.0
1979-07-26 16:39:19.220 ,5,1,0.,24.0,0.,24.0,0.,24.0,0.,24.0
1979-07-26 16:39:43.220 ,5,0,0.,24.0,0.,24.0,0.,24.0,0.,24.0
1979-07-26 16:40:07.220 ,6,1,0.,24.0,0.,24.0,0.,24.0,0.,24.0
1979-07-26 16:40:31.220 ,6,0,0.,24.0,0.,24.0,0.,24.0,0.,24.0
1979-07-26 16:40:55.220 ,7,1,0.,24.0,0.,24.0,0.,24.0,0.,24.0
1979-07-26 16:41:19.220 ,7,0,0.,24.0,0.,24.0,0.,24.0,0.,24.0
1979-07-26 16:41:43.220 ,7,1,0.,24.0,0.,24.0,0.,24.0,0.,24.0
1979-07-26 16:42:07.220 ,7,0,0.,24.0,0.,24.0,0.,24.0,0.,24.0
1979-07-26 16:42:31.220 ,6,1,0.,24.0,0.,24.0,0.,24.0,0.,24.0
1979-07-26 16:42:55.220 ,6,0,0.,24.0,0.,24.0,0.,24.0,0.,24.0
1979-07-26 16:43:19.220 ,5,1,0.,24.0,0.,24.0,0.,24.0,0.,24.0
1979-07-26 16:43:43.220 ,5,0,0.,24.0,0.,24.0,0.,24.0,0.,24.0
1979-07-26 16:44:07.220 ,4,1,0.,24.0,0.,24.0,0.,24.0,0.,24.0
1979-07-26 16:44:31.220 ,4,0,0.,24.0,0.,24.0,0.,24.0,0.,24.0
1979-07-26 16:44:55.220 ,3,1,0.,24.0,0.,24.0,0.,24.0,0.,24.0
1979-07-26 16:45:19.220 ,3,0,0.,24.0,0.,24.0,0.,24.0,0.,24.0
1979-07-26 16:45:43.220 ,2,1,0.,24.0,0.,24.0,0.,24.0,0.,24.0
1979-07-26 16:46:07.220 ,2,0,0.,24.0,0.,24.0,0.,24.0,0.,24.0
1979-07-26 16:46:31.220 ,1,1,0.,24.0,0.,24.0,0.,24.0,0.,24.0
1979-07-26 16:46:55.220 ,1,0,0.,24.0,0.,24.0,0.,24.0,0.,24.0
1979-07-26 16:47:19.220 ,0,1,0.,24.0,0.,24.0,0.,24.0,0.,24.0
1979-07-26 16:47:43.220 ,0,0,0.,24.0,0.,24.0,0.,24.0,0.,24.0
1979-07-26 16:48:07.220 ,0,1,0.,24.0,0.,24.0,0.,24.0,0.,24.0
1979-07-26 16:48:31.220 ,0,0,0.,24.0,0.,24.0,0.,24.0,0.,24.0
1979-07-26 16:48:55.220 ,1,1,0.,24.0,0.,24.0,0.,24.0,0.,24.0
1979-07-26 16:49:19.220 ,1,0,0.,24.0,0.,24.0,0.,24.0,0.,24.0
1979-07-26 16:49:43.220 ,2,1,0.,24.0,0.,24.0,0.,24.0,0.,24.0
1979-07-26 16:50:07.220 ,2,0,0.,24.0,0.,24.0,0.,24.0,0.,24.0
1979-07-26 16:50:31.220 ,3,1,0.,24.0,0.,24.0,0.,24.0,0.,24.0
1979-07-26 16:50:55.220 ,3,0,0.,24.0,0.,24.0,0.,24.0,0.,24.0
1979-07-26 16:51:19.220 ,4,1,0.,24.0,0.,24.0,0.,24.0,0.,24.0
1979-07-26 16:51:43.220 ,4,0,1.,24.0,0.,24.0,0.,24.0,0.,24.0
1979-07-26 16:52:07.220 ,5,1,0.,24.0,0.,24.0,0.,24.0,0.,24.0
1979-07-26 16:52:31.220 ,5,0,0.,24.0,0.,24.0,0.,24.0,0.,24.0
1979-07-26 16:52:55.220 ,6,1,0.,24.0,0.,24.0,0.,24.0,0.,24.0
1979-07-26 16:53:19.220 ,6,0,0.,24.0,0.,24.0,0.,24.0,0.,24.0
1979-07-26 16:53:43.220 ,7,1,0.,24.0,0.,24.0,0.,24.0,0.,24.0
1979-07-26 16:54:07.220 ,7,0,0.,24.0,0.,24.0,0.,24.0,0.,24.0
1979-07-26 16:54:31.220 ,7,1,0.,24.0,0.,24.0,0.,24.0,0.,24.0
1979-07-26 16:54:55.220 ,7,0,0.,24.0,0.,24.0,0.,24.0,0.,24.0
1979-07-26 16:55:19.220 ,6,1,0.,24.0,0.,24.0,0.,24.0,0.,24.0
1979-07-26 16:55:43.220 ,6,0,0.,24.0,0.,24.0,0.,24.0,0.,24.0
1979-07-26 16:56:07.220 ,5,1,0.,24.0,0.,24.0,0.,24.0,0.,24.0
1979-07-26 16:56:31.220 ,5,0,0.,24.0,0.,24.0,0.,24.0,0.,24.0
1979-07-26 16:56:55.220 ,4,1,0.,24.0,0.,24.0,0.,24.0,0.,24.0
1979-07-26 16:57:19.220 ,4,0,0.,24.0,0.,24.0,0.,24.0,0.,24.0
1979-07-26 16:57:43.220 ,3,1,0.,24.0,0.,24.0,0.,24.0,0.,24.0
1979-07-26 16:58:07.220 ,3,0,0.,24.0,0.,24.0,0.,24.0,0.,24.0
1979-07-26 16:58:31.220 ,2,1,0.,24.0,0.,24.0,0.,24.0,0.,24.0
1979-07-26 16:58:55.220 ,2,0,1.,24.0,0.,24.0,0.,24.0,0.,24.0
1979-07-26 16:59:19.220 ,1,1,0.,24.0,0.,24.0,0.,24.0,0.,24.0
1979-07-26 16:59:43.220 ,1,0,0.,24.0,0.,24.0,0.,24.0,0.,24.0
1979-07-26 17:00:07.220 ,0,1,0.,24.0,0.,24.0,0.,24.0,0.,24.0
1979-07-26 17:00:31.220 ,0,0,0.,24.0,0.,24.0,0.,24.0,0.,24.0
1979-07-26 17:00:55.220 ,0,1,0.,24.0,0.,24.0,0.,24.0,0.,24.0
1979-07-26 17:01:19.220 ,0,0,0.,24.0,0.,24.0,0.,24.0,0.,24.0
1979-07-26 17:01:43.220 ,1,1,0.,24.0,0.,24.0,0.,24.0,0.,24.0
1979-07-26 17:02:07.220 ,1,0,0.,24.0,0.,24.0,0.,24.0,0.,24.0
1979-07-26 17:02:31.220 ,2,1,0.,24.0,0.,24.0,0.,24.0,0.,24.0
1979-07-26 17:02:55.220 ,2,0,0.,24.0,0.,24.0,0.,24.0,0.,24.0
1979-07-26 17:03:19.220 ,3,1,0.,24.0,0.,24.0,0.,24.0,0.,24.0
1979-07-26 17:03:43.220 ,3,0,0.,24.0,0.,24.0,0.,24.0,0.,24.0
1979-07-26 17:04:07.220 ,4,1,0.,24.0,0.,24.0,0.,24.0,0.,24.0
1979-07-26 17:04:31.220 ,4,0,0.,24.0,0.,24.0,0.,24.0,0.,24.0
1979-07-26 17:04:55.220 ,5,1,0.,24.0,0.,24.0,0.,24.0,0.,24.0
1979-07-26 17:05:19.220 ,5,0,0.,24.0,0.,24.0,0.,24.0,0.,24.0
1979-07-26 17:05:43.220 ,6,1,0.,24.0,0.,24.0,0.,24.0,0.,24.0
1979-07-26 17:06:07.220 ,6,0,0.,24.0,0.,24.0,0.,24.0,0.,24.0
1979-07-26 17:06:31.220 ,7,0,0.,24.0,0.,24.0,0.,24.0,0.,24.0
1979-07-26 17:06:55.220 ,7,0,0.,24.0,0.,24.0,0.,24.0,0.,24.0
1979-07-26 17:07:19.220 ,5,1,0.,24.0,0.,24.0,0.,24.0,0.,24.0
1979-07-26 17:07:43.220 ,1,1,0.,24.0,0.,24.0,0.,24.0,0.,24.0
1979-07-26 17:08:07.220 ,2,1,0.,24.0,0.,24.0,0.,24.0,0.,24.0
1979-07-26 17:08:31.220 ,6,1,0.,24.0,0.,24.0,0.,24.0,0.,24.0
1979-07-26 17:08:55.220 ,5,1,0.,24.0,0.,24.0,0.,24.0,0.,24.0
1979-07-26 17:09:19.220 ,1,1,0.,24.0,0.,24.0,0.,24.0,0.,24.0
1979-07-26 17:09:43.220 ,2,1,0.,24.0,0.,24.0,0.,24.0,0.,24.0
1979-07-26 17:10:07.220 ,6,1,0.,24.0,0.,24.0,0.,24.0,0.,24.0
1979-07-26 17:10:31.220 ,5,1,0.,24.0,0.,24.0,0.,24.0,0.,24.0
1979-07-26 17:10:55.220 ,1,1,0.,24.0,0.,24.0,0.,24.0,0.,24.0
1979-07-26 17:11:19.220 ,2,1,0.,24.0,0.,24.0,0.,24.0,0.,24.0
1979-07-26 17:11:43.220 ,6,1,0.,24.0,0.,24.0,0.,24.0,0.,24.0
1979-07-26 17:12:07.220 ,5,1,0.,24.0,0.,24.0,0.,24.0,0.,24.0
1979-07-26 17:12:31.220 ,1,1,0.,24.0,0.,24.0,0.,24.0,0.,24.0
1979-07-26 17:12:55.220 ,2,1,0.,24.0,0.,24.0,0.,24.0,0.,24.0
1979-07-26 17:13:19.220 ,6,1,0.,24.0,0.,24.0,0.,24.0,0.,24.0
1979-07-26 17:13:43.220 ,5,1,0.,24.0,0.,24.0,0.,24.0,0.,24.0
1979-07-26 17:14:07.220 ,1,1,0.,24.0,0.,24.0,0.,24.0,1.,24.0
1979-07-26 17:14:31.220 ,2,1,0.,24.0,0.,24.0,0.,24.0,0.,24.0
1979-07-26 17:14:55.220 ,6,1,0.,24.0,0.,24.0,0.,24.0,0.,24.0
1979-07-26 17:15:19.220 ,5,1,0.,24.0,0.,24.0,0.,24.0,0.,24.0
1979-07-26 17:15:43.220 ,1,1,0.,24.0,0.,24.0,0.,24.0,0.,24.0
1979-07-26 17:16:07.220 ,2,1,0.,24.0,0.,24.0,0.,24.0,0.,24.0
1979-07-26 17:16:31.220 ,6,1,0.,24.0,0.,24.0,0.,24.0,0.,24.0
1979-07-26 17:16:55.220 ,5,1,0.,24.0,0.,24.0,0.,24.0,0.,24.0
1979-07-26 17:17:19.220 ,1,1,0.,24.0,0.,24.0,0.,24.0,0.,24.0
1979-07-26 17:17:43.220 ,0,0,0.,24.0,0.,24.0,0.,24.0,0.,24.0
1979-07-26 17:18:07.220 ,0,0,0.,24.0,0.,24.0,0.,24.0,0.,24.0
1979-07-26 17:18:31.220 ,5,1,0.,24.0,0.,24.0,0.,24.0,0.,24.0
1979-07-26 17:18:55.220 ,5,0,0.,24.0,0.,24.0,0.,24.0,0.,24.0
1979-07-26 17:19:19.220 ,4,1,0.,24.0,0.,24.0,0.,24.0,0.,24.0
1979-07-26 17:19:43.220 ,4,0,0.,24.0,0.,24.0,0.,24.0,0.,24.0
1979-07-26 17:20:07.220 ,3,1,0.,24.0,0.,24.0,0.,24.0,0.,24.0
1979-07-26 17:20:31.220 ,3,0,0.,24.0,0.,24.0,0.,24.0,0.,24.0
1979-07-26 17:20:55.220 ,2,1,0.,24.0,0.,24.0,0.,24.0,0.,24.0
1979-07-26 17:21:19.220 ,2,0,0.,24.0,0.,24.0,0.,24.0,0.,24.0
1979-07-26 17:21:43.220 ,1,1,0.,24.0,0.,24.0,0.,24.0,0.,24.0
1979-07-26 17:22:07.220 ,1,0,0.,24.0,0.,24.0,0.,24.0,0.,24.0
1979-07-26 17:22:31.220 ,0,1,0.,24.0,0.,24.0,0.,24.0,0.,24.0
1979-07-26 17:22:55.220 ,0,0,0.,24.0,0.,24.0,0.,24.0,0.,24.0
1979-07-26 17:23:19.220 ,0,1,1.,24.0,0.,24.0,0.,24.0,0.,24.0
1979-07-26 17:23:43.220 ,0,0,0.,24.0,0.,24.0,0.,24.0,0.,24.0
1979-07-26 17:24:07.220 ,1,1,0.,24.0,0.,24.0,0.,24.0,0.,24.0
1979-07-26 17:24:31.220 ,1,0,0.,24.0,0.,24.0,0.,24.0,0.,24.0
1979-07-26 17:24:55.220 ,2,1,0.,24.0,0.,24.0,0.,24.0,0.,24.0
1979-07-26 17:25:19.220 ,2,0,0.,24.0,0.,24.0,0.,24.0,0.,24.0
1979-07-26 17:25:43.220 ,3,1,0.,24.0,0.,24.0,0.,24.0,0.,24.0
1979-07-26 17:26:07.220 ,3,0,0.,24.0,0.,24.0,0.,24.0,0.,24.0
1979-07-26 17:26:31.220 ,4,1,0.,24.0,0.,24.0,0.,24.0,0.,24.0
1979-07-26 17:26:55.220 ,4,0,0.,24.0,0.,24.0,0.,24.0,0.,24.0
1979-07-26 17:27:19.220 ,5,1,0.,24.0,0.,24.0,0.,24.0,0.,24.0
1979-07-26 17:27:43.220 ,5,0,0.,24.0,0.,24.0,0.,24.0,0.,24.0
1979-07-26 17:28:07.220 ,6,1,0.,24.0,0.,24.0,0.,24.0,0.,24.0
1979-07-26 17:28:31.220 ,6,0,0.,24.0,0.,24.0,0.,24.0,0.,24.0
1979-07-26 17:28:55.220 ,7,1,0.,24.0,0.,24.0,0.,24.0,0.,24.0
1979-07-26 17:29:19.220 ,7,0,0.,24.0,0.,24.0,0.,24.0,0.,24.0
1979-07-26 17:29:43.220 ,7,1,0.,24.0,0.,24.0,0.,24.0,0.,24.0
1979-07-26 17:30:07.220 ,7,0,0.,24.0,0.,24.0,0.,24.0,0.,24.0
1979-07-26 17:30:31.220 ,6,1,0.,24.0,0.,24.0,0.,24.0,0.,24.0
1979-07-26 17:30:55.220 ,6,0,0.,24.0,0.,24.0,0.,24.0,0.,24.0
1979-07-26 17:31:19.220 ,5,1,0.,24.0,0.,24.0,0.,24.0,0.,24.0
1979-07-26 17:31:43.220 ,5,0,1.,24.0,0.,24.0,0.,24.0,0.,24.0
1979-07-26 17:32:07.220 ,4,1,0.,24.0,0.,24.0,0.,24.0,0.,24.0
1979-07-26 17:32:31.220 ,4,0,0.,24.0,0.,24.0,0.,24.0,0.,24.0
1979-07-26 17:32:55.220 ,3,1,0.,24.0,0.,24.0,0.,24.0,0.,24.0
1979-07-26 17:33:19.220 ,3,0,0.,24.0,0.,24.0,0.,24.0,0.,24.0
1979-07-26 17:33:43.220 ,2,1,0.,24.0,0.,24.0,0.,24.0,0.,24.0
1979-07-26 17:34:07.220 ,2,0,0.,24.0,0.,24.0,0.,24.0,0.,24.0
1979-07-26 17:34:31.220 ,1,1,0.,24.0,0.,24.0,0.,24.0,0.,24.0